QPF
0.00 0.00 0.00 0.01 0.01 0.01 0.01 0.02 0.01 0.00 0.00 0.00 0.00 0.00 0.01 0.01 0.00 0.00 0.00 0.00 0.00 0.00 0.00 0.00 0.02 0.03 0.04 0.04 0.03 0.01 0.00 0.00 0.00 0.00 0.00 0.00 0.00 0.00 0.00 0.00 0.00 0.00 0.01
0.00 0.00 0.00 0.00 0.00 0.01 0.01 0.01 0.00 0.00 0.00 0.00 0.00 0.00 0.00 0.00 0.00 0.00 0.00 0.00 0.00 0.00 0.00 0.00 0.00 0.00 0.01 0.01 0.01 0.00 0.00 0.00 0.00 0.00 0.00 0.00 0.00 0.00 0.00 0.00 0.00 0.00 0.01
0.00 0.00 0.00 0.00 0.00 0.00 0.01 0.00 0.00 0.00 0.00 0.00 0.00 0.00 0.00 0.00 0.00 0.00 0.00 0.00 0.00 0.00 0.00 0.00 0.00 0.00 0.00 0.00 0.00 0.00 0.00 0.00 0.00 0.00 0.00 0.00 0.00 0.00 0.00 0.00 0.00 0.00 0.00
0.00 0.00 0.00 0.00 0.00 0.00 0.00 0.00 0.00 0.00 0.00 0.00 0.00 0.00 0.00 0.00 0.00 0.00 0.00 0.00 0.00 0.00 0.00 0.00 0.00 0.00 0.00 0.00 0.00 0.00 0.00 0.00 0.00 0.00 0.00 0.00 0.00 0.00 0.00 0.00 0.00 0.00 0.00
0.00 0.00 0.00 0.00 0.00 0.00 0.00 0.00 0.00 0.00 0.00 0.00 0.00 0.00 0.00 0.01 0.02 0.02 0.01 0.00 0.00 0.00 0.00 0.00 0.00 0.00 0.00 0.00 0.00 0.00 0.00 0.00 0.00 0.00 0.00 0.00 0.00 0.00 0.00 0.00 0.00 0.00 0.00
0.00 0.00 0.00 0.00 0.00 0.00 0.00 0.00 0.00 0.00 0.00 0.00 0.00 0.00 0.00 0.00 0.02 0.04 0.02 0.00 0.00 0.00 0.00 0.00 0.00 0.00 0.00 0.00 0.00 0.00 0.00 0.00 0.00 0.00 0.00 0.00 0.00 0.00 0.00 0.00 0.00 0.00 0.00
0.00 0.00 0.00 0.00 0.00 0.00 0.00 0.00 0.00 0.00 0.00 0.00 0.00 0.00 0.00 0.00 0.01 0.02 0.02 0.00 0.00 0.00 0.00 0.00 0.00 0.00 0.00 0.00 0.00 0.00 0.00 0.00 0.00 0.00 0.00 0.00 0.00 0.00 0.00 0.00 0.00 0.00 0.00
0.00 0.00 0.00 0.00 0.00 0.00 0.00 0.00 0.00 0.00 0.00 0.00 0.00 0.00 0.00 0.00 0.00 0.01 0.02 0.00 0.00 0.00 0.00 0.00 0.00 0.00 0.00 0.00 0.00 0.00 0.00 0.00 0.00 0.00 0.00 0.00 0.00 0.00 0.00 0.00 0.00 0.00 0.00
0.00 0.00 0.00 0.00 0.00 0.00 0.00 0.00 0.00 0.00 0.00 0.00 0.00 0.00 0.00 0.00 0.00 0.00 0.01 0.00 0.00 0.00 0.00 0.00 0.00 0.00 0.00 0.00 0.00 0.00 0.00 0.00 0.00 0.00 0.00 0.00 0.00 0.00 0.00 0.00 0.00 0.00 0.00
0.00 0.00 0.00 0.00 0.00 0.00 0.00 0.00 0.00 0.00 0.00 0.00 0.00 0.00 0.00 0.00 0.00 0.00 0.00 0.00 0.00 0.00 0.00 0.00 0.00 0.00 0.00 0.00 0.00 0.00 0.00 0.00 0.00 0.00 0.00 0.00 0.00 0.00 0.00 0.00 0.00 0.00 0.00
0.00 0.00 0.00 0.00 0.00 0.00 0.00 0.00 0.00 0.00 0.00 0.00 0.00 0.00 0.00 0.00 0.00 0.00 0.00 0.00 0.00 0.00 0.00 0.00 0.00 0.00 0.00 0.00 0.00 0.00 0.00 0.00 0.00 0.00 0.00 0.00 0.00 0.00 0.00 0.00 0.00 0.00 0.00
0.00 0.00 0.00 0.00 0.00 0.00 0.00 0.00 0.00 0.00 0.00 0.00 0.00 0.00 0.00 0.00 0.00 0.00 0.00 0.00 0.00 0.00 0.00 0.00 0.00 0.00 0.00 0.00 0.00 0.00 0.00 0.00 0.00 0.00 0.00 0.00 0.00 0.00 0.00 0.01 0.01 0.01 0.00
0.00 0.00 0.00 0.00 0.00 0.00 0.00 0.00 0.00 0.00 0.00 0.00 0.00 0.00 0.00 0.00 0.00 0.00 0.00 0.00 0.00 0.00 0.00 0.00 0.00 0.00 0.00 0.00 0.00 0.00 0.00 0.00 0.00 0.00 0.00 0.00 0.00 0.00 0.01 0.02 0.02 0.02 0.01
0.00 0.00 0.00 0.00 0.00 0.00 0.00 0.00 0.00 0.00 0.00 0.00 0.00 0.00 0.00 0.00 0.00 0.00 0.00 0.00 0.00 0.00 0.00 0.00 0.00 0.00 0.00 0.00 0.00 0.00 0.00 0.00 0.00 0.00 0.00 0.00 0.00 0.00 0.01 0.02 0.02 0.02 0.02
0.00 0.00 0.00 0.00 0.00 0.00 0.00 0.00 0.00 0.00 0.00 0.00 0.00 0.00 0.00 0.00 0.00 0.00 0.00 0.00 0.00 0.00 0.00 0.00 0.00 0.00 0.00 0.00 0.00 0.00 0.00 0.00 0.00 0.00 0.00 0.00 0.00 0.00 0.00 0.01 0.01 0.01 0.02
0.00 0.00 0.00 0.00 0.00 0.00 0.00 0.00 0.00 0.00 0.00 0.00 0.00 0.00 0.00 0.00 0.00 0.00 0.00 0.00 0.00 0.00 0.00 0.00 0.00 0.00 0.00 0.00 0.00 0.00 0.00 0.00 0.00 0.00 0.00 0.00 0.00 0.00 0.00 0.00 0.01 0.02 0.04
0.00 0.00 0.00 0.00 0.00 0.00 0.00 0.00 0.00 0.00 0.00 0.00 0.00 0.00 0.00 0.00 0.00 0.00 0.00 0.00 0.00 0.00 0.00 0.00 0.00 0.00 0.00 0.00 0.00 0.00 0.00 0.00 0.00 0.00 0.00 0.00 0.00 0.00 0.00 0.00 0.01 0.02 0.02
0.00 0.00 0.00 0.00 0.00 0.00 0.00 0.00 0.00 0.00 0.00 0.00 0.00 0.00 0.00 0.00 0.00 0.00 0.00 0.00 0.00 0.00 0.00 0.00 0.00 0.00 0.00 0.00 0.00 0.00 0.00 0.00 0.00 0.00 0.00 0.00 0.00 0.00 0.00 0.00 0.01 0.01 0.00
0.00 0.00 0.00 0.00 0.00 0.00 0.00 0.00 0.00 0.00 0.00 0.00 0.00 0.00 0.00 0.00 0.00 0.00 0.00 0.00 0.00 0.00 0.00 0.00 0.00 0.00 0.00 0.00 0.00 0.00 0.00 0.00 0.00 0.00 0.00 0.00 0.00 0.00 0.00 0.00 0.00 0.00 0.00
0.00 0.00 0.00 0.00 0.00 0.00 0.00 0.00 0.00 0.00 0.00 0.00 0.00 0.00 0.00 0.00 0.00 0.00 0.00 0.00 0.00 0.00 0.00 0.00 0.00 0.00 0.00 0.00 0.00 0.00 0.00 0.00 0.00 0.00 0.00 0.00 0.00 0.00 0.00 0.00 0.00 0.00 0.00
0.00 0.00 0.00 0.00 0.00 0.00 0.00 0.00 0.00 0.00 0.00 0.00 0.00 0.00 0.00 0.00 0.00 0.00 0.00 0.00 0.00 0.00 0.00 0.00 0.00 0.00 0.00 0.00 0.00 0.00 0.00 0.00 0.00 0.00 0.00 0.00 0.00 0.00 0.00 0.00 0.00 0.00 0.00
0.00 0.00 0.00 0.00 0.00 0.00 0.00 0.00 0.00 0.00 0.00 0.00 0.00 0.00 0.00 0.00 0.00 0.00 0.00 0.00 0.00 0.00 0.00 0.00 0.00 0.00 0.00 0.00 0.00 0.00 0.00 0.00 0.00 0.00 0.00 0.00 0.00 0.00 0.00 0.00 0.00 0.00 0.00
0.00 0.00 0.00 0.00 0.00 0.00 0.00 0.00 0.00 0.00 0.00 0.00 0.00 0.00 0.00 0.00 0.00 0.00 0.00 0.00 0.00 0.00 0.00 0.00 0.00 0.00 0.00 0.00 0.00 0.00 0.00 0.00 0.00 0.00 0.00 0.00 0.00 0.00 0.00 0.00 0.00 0.00 0.00
0.00 0.00 0.00 0.00 0.00 0.00 0.00 0.00 0.00 0.00 0.00 0.00 0.00 0.00 0.00 0.00 0.00 0.00 0.00 0.00 0.00 0.00 0.00 0.00 0.00 0.00 0.00 0.00 0.00 0.00 0.00 0.00 0.00 0.00 0.00 0.00 0.00 0.00 0.00 0.00 0.00 0.00 0.00
0.00 0.00 0.00 0.00 0.00 0.00 0.00 0.00 0.00 0.00 0.00 0.00 0.00 0.00 0.00 0.00 0.00 0.00 0.00 0.00 0.00 0.00 0.00 0.00 0.00 0.00 0.00 0.00 0.00 0.00 0.00 0.00 0.00 0.00 0.00 0.00 0.00 0.00 0.00 0.00 0.00 0.00 0.00
0.00 0.00 0.00 0.00 0.00 0.00 0.00 0.00 0.00 0.00 0.00 0.00 0.00 0.00 0.00 0.00 0.00 0.00 0.00 0.00 0.00 0.00 0.00 0.00 0.00 0.00 0.00 0.00 0.00 0.00 0.00 0.00 0.00 0.00 0.00 0.00 0.00 0.00 0.00 0.00 0.00 0.00 0.00
MSLP
1011.66 1011.34 1011.17 1011.19 1011.37 1011.68 1012.03 1012.36 1012.61 1012.75 1012.80 1012.80 1012.80 1012.85 1012.97 1013.17 1013.41 1013.65 1013.86 1013.98 1014.03 1013.99 1013.91 1013.80 1013.72 1013.66 1013.64 1013.65 1013.68 1013.70 1013.71 1013.72 1013.72 1013.71 1013.71 1013.71 1013.71 1013.68 1013.63 1013.55 1013.45 1013.34 1013.26
1011.41 1011.14 1011.02 1011.08 1011.30 1011.64 1012.02 1012.37 1012.62 1012.77 1012.83 1012.83 1012.84 1012.89 1013.01 1013.20 1013.43 1013.66 1013.85 1013.97 1014.02 1014.00 1013.95 1013.88 1013.83 1013.80 1013.79 1013.79 1013.78 1013.76 1013.73 1013.69 1013.65 1013.62 1013.61 1013.61 1013.60 1013.58 1013.52 1013.43 1013.33 1013.22 1013.13
1011.04 1010.83 1010.77 1010.90 1011.19 1011.58 1012.00 1012.37 1012.64 1012.81 1012.87 1012.89 1012.90 1012.95 1013.07 1013.24 1013.44 1013.64 1013.80 1013.91 1013.96 1013.96 1013.94 1013.92 1013.91 1013.91 1013.92 1013.91 1013.88 1013.83 1013.75 1013.67 1013.60 1013.55 1013.53 1013.53 1013.52 1013.50 1013.45 1013.37 1013.26 1013.15 1013.07
1010.62 1010.48 1010.50 1010.70 1011.06 1011.50 1011.96 1012.36 1012.65 1012.83 1012.91 1012.94 1012.96 1013.01 1013.11 1013.25 1013.42 1013.58 1013.71 1013.80 1013.85 1013.87 1013.88 1013.90 1013.94 1013.97 1014.00 1013.99 1013.95 1013.88 1013.77 1013.66 1013.57 1013.51 1013.48 1013.48 1013.48 1013.46 1013.42 1013.34 1013.24 1013.14 1013.06
1010.23 1010.16 1010.27 1010.54 1010.95 1011.44 1011.92 1012.34 1012.64 1012.83 1012.92 1012.95 1012.98 1013.03 1013.12 1013.25 1013.38 1013.51 1013.61 1013.68 1013.71 1013.74 1013.77 1013.83 1013.89 1013.95 1014.00 1014.01 1013.97 1013.88 1013.77 1013.65 1013.55 1013.48 1013.45 1013.45 1013.45 1013.44 1013.39 1013.32 1013.22 1013.13 1013.05
1009.95 1009.96 1010.13 1010.46 1010.92 1011.42 1011.91 1012.31 1012.61 1012.78 1012.87 1012.92 1012.95 1013.01 1013.11 1013.23 1013.34 1013.45 1013.52 1013.56 1013.58 1013.60 1013.64 1013.70 1013.78 1013.86 1013.92 1013.94 1013.90 1013.83 1013.72 1013.60 1013.51 1013.44 1013.42 1013.41 1013.41 1013.39 1013.33 1013.25 1013.16 1013.06 1012.98
1009.83 1009.90 1010.12 1010.49 1010.96 1011.45 1011.91 1012.28 1012.54 1012.70 1012.78 1012.83 1012.88 1012.97 1013.07 1013.20 1013.32 1013.41 1013.45 1013.47 1013.47 1013.47 1013.49 1013.55 1013.62 1013.70 1013.77 1013.79 1013.77 1013.70 1013.60 1013.50 1013.42 1013.36 1013.34 1013.32 1013.30 1013.26 1013.19 1013.09 1012.98 1012.87 1012.80
1009.86 1009.97 1010.23 1010.61 1011.06 1011.52 1011.93 1012.24 1012.46 1012.58 1012.65 1012.71 1012.79 1012.90 1013.04 1013.18 1013.31 1013.40 1013.43 1013.42 1013.40 1013.37 1013.36 1013.39 1013.44 1013.51 1013.56 1013.58 1013.56 1013.50 1013.42 1013.34 1013.27 1013.21 1013.18 1013.14 1013.10 1013.02 1012.91 1012.78 1012.64 1012.53 1012.45
1009.98 1010.12 1010.39 1010.76 1011.18 1011.59 1011.93 1012.19 1012.35 1012.44 1012.50 1012.57 1012.68 1012.83 1013.01 1013.18 1013.33 1013.42 1013.44 1013.42 1013.36 1013.30 1013.26 1013.25 1013.27 1013.31 1013.34 1013.34 1013.32 1013.26 1013.19 1013.12 1013.05 1012.99 1012.93 1012.87 1012.78 1012.65 1012.50 1012.32 1012.15 1012.01 1011.93
1010.08 1010.24 1010.51 1010.87 1011.26 1011.61 1011.90 1012.09 1012.21 1012.29 1012.35 1012.45 1012.59 1012.77 1012.99 1013.19 1013.35 1013.45 1013.47 1013.43 1013.35 1013.27 1013.19 1013.15 1013.13 1013.13 1013.13 1013.12 1013.08 1013.01 1012.94 1012.85 1012.77 1012.69 1012.61 1012.50 1012.36 1012.18 1011.98 1011.75 1011.54 1011.38 1011.28
1010.08 1010.25 1010.52 1010.87 1011.22 1011.54 1011.78 1011.95 1012.05 1012.12 1012.21 1012.33 1012.51 1012.73 1012.97 1013.20 1013.37 1013.47 1013.49 1013.44 1013.35 1013.25 1013.16 1013.09 1013.04 1013.01 1012.98 1012.94 1012.87 1012.78 1012.69 1012.58 1012.48 1012.37 1012.24 1012.09 1011.90 1011.67 1011.41 1011.14 1010.89 1010.69 1010.58
1009.91 1010.09 1010.37 1010.70 1011.04 1011.34 1011.57 1011.74 1011.86 1011.96 1012.07 1012.24 1012.45 1012.70 1012.96 1013.19 1013.37 1013.47 1013.49 1013.44 1013.35 1013.25 1013.16 1013.08 1013.02 1012.96 1012.90 1012.83 1012.73 1012.61 1012.48 1012.34 1012.20 1012.05 1011.88 1011.69 1011.45 1011.17 1010.87 1010.56 1010.27 1010.05 1009.91
1009.56 1009.75 1010.04 1010.38 1010.72 1011.03 1011.28 1011.48 1011.64 1011.80 1011.97 1012.17 1012.42 1012.68 1012.95 1013.18 1013.35 1013.44 1013.46 1013.43 1013.36 1013.28 1013.20 1013.13 1013.07 1013.00 1012.92 1012.81 1012.67 1012.51 1012.34 1012.15 1011.97 1011.78 1011.58 1011.34 1011.08 1010.77 1010.44 1010.11 1009.79 1009.54 1009.36
1009.11 1009.30 1009.60 1009.94 1010.31 1010.65 1010.95 1011.21 1011.44 1011.66 1011.90 1012.15 1012.42 1012.70 1012.95 1013.17 1013.32 1013.42 1013.45 1013.43 1013.39 1013.34 1013.30 1013.25 1013.20 1013.13 1013.03 1012.88 1012.71 1012.50 1012.28 1012.05 1011.82 1011.60 1011.37 1011.12 1010.84 1010.53 1010.19 1009.84 1009.52 1009.23 1009.01
1008.63 1008.83 1009.12 1009.48 1009.87 1010.26 1010.62 1010.97 1011.28 1011.59 1011.89 1012.19 1012.48 1012.76 1013.00 1013.20 1013.34 1013.43 1013.47 1013.48 1013.48 1013.48 1013.47 1013.46 1013.42 1013.35 1013.22 1013.05 1012.83 1012.57 1012.30 1012.03 1011.77 1011.53 1011.28 1011.03 1010.76 1010.46 1010.14 1009.80 1009.47 1009.15 1008.88
1008.24 1008.43 1008.73 1009.10 1009.51 1009.95 1010.38 1010.81 1011.22 1011.60 1011.97 1012.31 1012.62 1012.90 1013.12 1013.30 1013.43 1013.52 1013.58 1013.63 1013.67 1013.71 1013.74 1013.75 1013.73 1013.64 1013.50 1013.29 1013.03 1012.73 1012.42 1012.12 1011.83 1011.57 1011.33 1011.09 1010.84 1010.57 1010.28 1009.96 1009.63 1009.30 1008.98
1008.02 1008.20 1008.48 1008.85 1009.29 1009.77 1010.28 1010.78 1011.27 1011.74 1012.16 1012.54 1012.86 1013.12 1013.34 1013.50 1013.62 1013.72 1013.80 1013.89 1013.97 1014.04 1014.10 1014.13 1014.10 1014.01 1013.84 1013.60 1013.30 1012.97 1012.63 1012.30 1012.00 1011.73 1011.49 1011.27 1011.05 1010.82 1010.56 1010.27 1009.95 1009.61 1009.25
1008.00 1008.16 1008.42 1008.79 1009.24 1009.76 1010.33 1010.90 1011.47 1011.99 1012.46 1012.86 1013.19 1013.45 1013.65 1013.80 1013.92 1014.04 1014.15 1014.26 1014.37 1014.48 1014.55 1014.58 1014.53 1014.42 1014.22 1013.95 1013.62 1013.27 1012.91 1012.56 1012.25 1011.98 1011.75 1011.54 1011.35 1011.14 1010.91 1010.64 1010.34 1010.00 1009.62
1008.15 1008.29 1008.53 1008.89 1009.36 1009.91 1010.52 1011.16 1011.78 1012.36 1012.86 1013.27 1013.60 1013.85 1014.04 1014.19 1014.32 1014.45 1014.59 1014.73 1014.86 1014.98 1015.05 1015.06 1014.99 1014.85 1014.62 1014.33 1013.99 1013.62 1013.25 1012.91 1012.59 1012.31 1012.08 1011.86 1011.67 1011.47 1011.25 1011.00 1010.71 1010.38 1009.99
1008.40 1008.52 1008.75 1009.11 1009.59 1010.17 1010.83 1011.51 1012.18 1012.79 1013.31 1013.73 1014.05 1014.30 1014.48 1014.64 1014.78 1014.93 1015.09 1015.25 1015.39 1015.50 1015.56 1015.54 1015.45 1015.28 1015.03 1014.73 1014.38 1014.02 1013.66 1013.31 1012.99 1012.70 1012.44 1012.20 1011.97 1011.75 1011.53 1011.28 1011.00 1010.68 1010.31
1008.68 1008.79 1009.01 1009.37 1009.87 1010.48 1011.18 1011.90 1012.60 1013.24 1013.77 1014.19 1014.51 1014.75 1014.93 1015.09 1015.25 1015.42 1015.60 1015.76 1015.91 1016.00 1016.03 1015.99 1015.87 1015.68 1015.42 1015.13 1014.80 1014.46 1014.11 1013.77 1013.44 1013.12 1012.81 1012.51 1012.23 1011.96 1011.70 1011.43 1011.16 1010.85 1010.51
1008.90 1009.03 1009.26 1009.63 1010.14 1010.79 1011.52 1012.27 1013.00 1013.65 1014.20 1014.62 1014.93 1015.17 1015.35 1015.52 1015.70 1015.88 1016.06 1016.23 1016.36 1016.44 1016.45 1016.38 1016.23 1016.03 1015.79 1015.51 1015.22 1014.91 1014.59 1014.26 1013.91 1013.55 1013.17 1012.80 1012.43 1012.08 1011.76 1011.46 1011.17 1010.88 1010.58
1009.06 1009.20 1009.45 1009.84 1010.38 1011.05 1011.81 1012.60 1013.35 1014.01 1014.56 1014.98 1015.29 1015.53 1015.72 1015.89 1016.08 1016.27 1016.45 1016.62 1016.73 1016.79 1016.77 1016.67 1016.52 1016.32 1016.10 1015.86 1015.62 1015.35 1015.07 1014.74 1014.38 1013.96 1013.51 1013.04 1012.57 1012.12 1011.72 1011.37 1011.07 1010.79 1010.52
1009.16 1009.34 1009.61 1010.02 1010.58 1011.27 1012.05 1012.85 1013.61 1014.29 1014.84 1015.26 1015.58 1015.81 1016.01 1016.20 1016.39 1016.58 1016.76 1016.91 1017.01 1017.04 1016.99 1016.88 1016.72 1016.54 1016.35 1016.16 1015.96 1015.75 1015.50 1015.19 1014.80 1014.33 1013.80 1013.23 1012.65 1012.10 1011.62 1011.21 1010.87 1010.60 1010.36
1009.26 1009.47 1009.77 1010.19 1010.77 1011.47 1012.25 1013.06 1013.82 1014.50 1015.05 1015.48 1015.80 1016.05 1016.26 1016.45 1016.64 1016.83 1017.01 1017.14 1017.20 1017.20 1017.13 1017.01 1016.85 1016.68 1016.52 1016.38 1016.23 1016.07 1015.85 1015.55 1015.14 1014.63 1014.02 1013.36 1012.68 1012.04 1011.47 1011.00 1010.63 1010.35 1010.13
1009.41 1009.66 1009.98 1010.42 1010.99 1011.68 1012.45 1013.24 1014.00 1014.67 1015.22 1015.65 1015.99 1016.24 1016.46 1016.66 1016.86 1017.04 1017.19 1017.30 1017.34 1017.30 1017.20 1017.06 1016.90 1016.75 1016.61 1016.51 1016.40 1016.28 1016.08 1015.79 1015.37 1014.82 1014.16 1013.43 1012.67 1011.95 1011.31 1010.78 1010.37 1010.07 1009.85
Thickness
5762 5765 5763 5760 5757 5754 5752 5748 5745 5742 5740 5740 5738 5736 5734 5733 5732 5731 5731 5731 5731 5731 5730 5731 5732 5733 5734 5734 5733 5732 5730 5729 5729 5728 5727 5725 5724 5723 5723 5722 5719 5718 5718
5764 5763 5761 5758 5754 5752 5749 5746 5742 5740 5737 5736 5735 5734 5732 5731 5729 5729 5728 5727 5728 5728 5727 5727 5727 5727 5728 5727 5727 5727 5725 5725 5726 5725 5724 5723 5721 5720 5720 5719 5718 5716 5716
5761 5760 5758 5754 5750 5748 5746 5743 5741 5738 5736 5734 5733 5731 5730 5729 5727 5726 5725 5724 5724 5724 5724 5723 5723 5722 5722 5721 5721 5722 5722 5721 5722 5721 5720 5720 5718 5717 5718 5717 5715 5715 5714
5759 5757 5754 5750 5747 5745 5743 5741 5739 5737 5734 5732 5730 5729 5729 5727 5726 5724 5723 5722 5721 5721 5721 5720 5719 5718 5717 5717 5717 5718 5718 5716 5717 5716 5715 5715 5714 5715 5715 5714 5712 5712 5711
5755 5754 5751 5747 5744 5742 5741 5739 5737 5734 5732 5730 5728 5726 5726 5726 5724 5722 5721 5721 5720 5719 5718 5717 5715 5714 5714 5713 5713 5714 5713 5713 5712 5710 5710 5710 5710 5710 5711 5711 5709 5709 5709
5751 5750 5748 5745 5742 5740 5738 5737 5734 5731 5730 5728 5726 5724 5724 5724 5723 5721 5719 5718 5718 5717 5715 5714 5713 5712 5711 5710 5709 5709 5708 5708 5707 5705 5705 5704 5704 5705 5706 5706 5705 5704 5704
5748 5746 5743 5742 5740 5738 5736 5735 5732 5730 5728 5725 5724 5723 5723 5722 5721 5720 5718 5716 5714 5713 5712 5711 5710 5710 5708 5707 5707 5706 5704 5704 5703 5700 5700 5700 5699 5700 5702 5702 5701 5701 5700
5746 5743 5740 5739 5737 5735 5734 5733 5731 5728 5726 5724 5722 5721 5721 5720 5718 5716 5714 5712 5711 5710 5709 5708 5707 5706 5705 5705 5704 5703 5702 5702 5699 5698 5698 5697 5697 5697 5697 5698 5698 5696 5694
5744 5741 5738 5737 5735 5733 5732 5731 5729 5726 5725 5723 5721 5720 5719 5717 5714 5712 5710 5708 5707 5706 5705 5704 5703 5703 5702 5702 5701 5699 5698 5697 5695 5695 5694 5693 5694 5694 5694 5694 5693 5692 5690
5740 5739 5737 5734 5732 5731 5730 5729 5726 5724 5722 5721 5720 5719 5717 5715 5712 5709 5707 5705 5704 5703 5702 5701 5699 5699 5699 5698 5696 5695 5694 5693 5692 5691 5690 5689 5689 5690 5690 5690 5688 5687 5685
5735 5735 5734 5731 5730 5729 5727 5725 5724 5723 5720 5718 5718 5717 5715 5712 5709 5706 5704 5703 5702 5702 5700 5698 5696 5695 5695 5693 5692 5690 5689 5688 5688 5686 5685 5686 5685 5685 5685 5684 5683 5681 5679
5731 5732 5732 5730 5728 5726 5724 5723 5722 5720 5717 5715 5715 5714 5712 5709 5706 5704 5702 5700 5699 5699 5697 5694 5692 5691 5690 5689 5687 5685 5684 5684 5682 5681 5681 5681 5680 5680 5680 5679 5678 5677 5676
5734 5732 5730 5728 5727 5724 5723 5721 5719 5718 5715 5713 5712 5710 5708 5705 5701 5699 5697 5696 5695 5693 5691 5689 5687 5686 5684 5682 5680 5679 5678 5677 5677 5676 5676 5675 5674 5674 5675 5675 5675 5674 5674
5730 5731 5730 5728 5725 5722 5721 5719 5716 5715 5712 5710 5709 5707 5705 5701 5697 5694 5691 5690 5689 5688 5686 5683 5680 5677 5676 5674 5672 5671 5670 5670 5670 5670 5669 5668 5667 5668 5669 5669 5670 5670 5670
5729 5729 5729 5727 5723 5720 5717 5715 5713 5712 5709 5707 5706 5703 5701 5697 5692 5688 5684 5682 5682 5681 5678 5675 5672 5669 5668 5666 5665 5664 5663 5662 5662 5662 5661 5662 5662 5661 5661 5660 5662 5663 5664
5729 5727 5725 5723 5721 5718 5714 5711 5710 5708 5705 5703 5700 5698 5696 5691 5686 5680 5675 5673 5672 5671 5669 5666 5663 5660 5658 5658 5657 5656 5655 5654 5654 5654 5653 5653 5652 5652 5651 5651 5652 5653 5654
5725 5724 5720 5718 5717 5714 5710 5707 5705 5703 5700 5696 5693 5690 5687 5683 5677 5671 5667 5664 5663 5662 5661 5658 5655 5652 5650 5648 5647 5648 5648 5647 5646 5645 5644 5642 5641 5640 5639 5639 5640 5640 5640
5720 5718 5715 5715 5711 5708 5705 5702 5698 5695 5692 5687 5683 5680 5676 5671 5667 5663 5659 5656 5655 5654 5652 5649 5644 5640 5638 5637 5637 5638 5638 5637 5636 5634 5633 5632 5630 5628 5627 5626 5624 5624 5624
5714 5713 5710 5708 5705 5702 5698 5694 5689 5686 5682 5678 5674 5670 5666 5662 5658 5654 5650 5647 5646 5643 5640 5637 5632 5628 5626 5626 5628 5629 5629 5626 5624 5623 5622 5619 5617 5615 5613 5611 5610 5609 5608
5706 5706 5704 5701 5698 5694 5689 5685 5680 5676 5672 5667 5664 5660 5656 5652 5649 5645 5641 5638 5635 5632 5627 5624 5620 5618 5616 5616 5619 5619 5620 5617 5614 5613 5611 5608 5605 5601 5598 5597 5595 5593 5591
5697 5696 5696 5694 5691 5688 5682 5676 5672 5666 5661 5656 5653 5650 5647 5643 5639 5635 5630 5626 5623 5618 5614 5611 5608 5605 5604 5604 5605 5605 5607 5607 5605 5602 5597 5594 5590 5586 5583 5580 5576 5574 5572
5687 5686 5686 5685 5683 5680 5675 5671 5666 5659 5651 5646 5642 5640 5637 5633 5629 5624 5619 5614 5609 5605 5601 5598 5595 5593 5591 5591 5589 5590 5589 5592 5592 5588 5583 5578 5573 5568 5565 5561 5558 5555 5552
5678 5678 5677 5676 5674 5671 5667 5663 5657 5650 5642 5635 5631 5628 5625 5623 5618 5613 5607 5602 5597 5593 5589 5586 5584 5583 5579 5577 5575 5571 5566 5564 5573 5578 5573 5565 5558 5553 5548 5545 5542 5538 5534
5671 5670 5670 5668 5665 5662 5659 5655 5650 5642 5633 5627 5623 5618 5615 5611 5606 5601 5596 5591 5586 5582 5578 5575 5573 5571 5569 5563 5559 5553 5546 5540 5538 5549 5557 5551 5544 5538 5533 5529 5524 5520 5516
5663 5662 5662 5660 5656 5653 5650 5646 5639 5631 5625 5618 5613 5608 5603 5599 5595 5591 5586 5581 5576 5571 5568 5564 5562 5559 5555 5550 5545 5540 5534 5526 5518 5512 5524 5529 5527 5523 5518 5512 5505 5500 5494
5653 5653 5652 5650 5645 5643 5641 5636 5630 5623 5616 5609 5603 5597 5592 5587 5583 5579 5575 5571 5566 5562 5558 5555 5551 5547 5541 5535 5529 5522 5516 5510 5506 5501 5503 5507 5505 5503 5499 5493 5484 5477 5469